sat.trackr.live / text

‹ back to catalog

KUIPER-00626

NORAD 69781 · 2026-151U

PAYLOAD ACTIVE UNKNOWN

§ Identity

Operator
Country
US
Launch date
2026-07-02
Launch site
AFETR
Launch vehicle
Mass (kg)
RCS (m²)

External: N2YO · Heavens-Above · Gunter

§ Orbital elements

Epoch: 2026-09-20T04:33:44.030016Z

Period
97.30 min
Inclination
51.8990°
Eccentricity
0.0001123
Mean motion
14.79944388 rev/d
Perigee alt
628.7 km
Apogee alt
630.3 km
Semi-major
7,007.6 km
B*
-2.6867e-4
RAAN
228.0437°
Arg perigee
110.2478°
Mean anomaly
249.8605°
Rev number
1,216

§ Raw data

KUIPER-006261 69781U 26151U   26263.19009294 -.00002269  00000+0 -26867-3 0  99912 69781  51.8990 228.0437 0001123 110.2478 249.8605 14.79944388 12162

JSON: /api/v1/satellites/69781 · /tle

For live sub-satellite position, see the globe view (requires WebGL).

§ Visibility from observer

Set your observer location to see the next 7 days of passes ≥ 10°. The values pass through the URL so the page stays shareable.

No JS? Fill the form by hand. The geolocation button needs JavaScript.